Sturgis, MI

6:39 AM EDT on September 26, 2016 (GMT -0400)
Kirsch Municipal

Weather History for KIRS - April, 2013

Change the Weather History Date:

Monday, April 8, 2013

  Actual Average (KHAI) Record (KHAI)
Temperature  
Mean Temperature 54 °F -  
Max Temperature 69 °F 55 °F 80 °F (1991)
Min Temperature 39 °F 32 °F 12 °F (1972)
Degree Days  
Heating Degree Days 11    
Growing Degree Days 4 (Base 50)    
Moisture  
Dew Point 41 °F    
Average Humidity 75    
Maximum Humidity 94    
Minimum Humidity 53    
Precipitation  
Precipitation 0.00 in - - ()
Sea Level Pressure  
Sea Level Pressure 29.85 in    
Wind  
Wind Speed 11 mph (SE)    
Max Wind Speed 31 mph    
Max Gust Speed 44 mph    
Visibility 9 miles    
Events Rain    
Averages and records for this station are not official NWS values.
T = Trace of Precipitation, MM = Missing Value Source: NWS Daily Summary

Daily Weather History Graph

Daily Weather History Graph

Search for Another Location

Airport or City:

Trip Planner

Search our weather history database for the weather conditions in past years. The results will help you decide how hot, cold, wet, or windy it might be!

Date:

Astronomy

Apr. 08, 2013 Rise Set
Actual Time 7:12 AM EDT 8:15 PM EDT
Civil Twilight 6:44 AM EDT 8:43 PM EDT
Nautical Twilight 6:10 AM EDT 9:17 PM EDT
Astronomical Twilight 5:34 AM EDT 9:53 PM EDT
Moon 6:03 AM EDT (4/8) 6:48 PM EDT (4/8)
Length of Visible Light 13h 59m
Length of Day
13h 02m
Waning Crescent, 3% of the Moon is Illuminated
Apr 8
Waning Crescent
Apr 10
New
Apr 18
First Quarter
Apr 25
Full
May 2
Last Quarter

Hourly Weather History & Observations

Time (EDT) Temp. Windchill Dew Point Humidity Pressure Visibility Wind Dir Wind Speed Gust Speed Precip Events Conditions
12:15 AM 39.2 °F 34.2 °F 30.2 °F 70% 29.98 in 10.0 mi ENE 6.9 mph - N/A   Clear
12:34 AM 39.2 °F 35.0 °F 30.2 °F 70% 29.98 in 10.0 mi ENE 5.8 mph - N/A   Clear
12:55 AM 39.2 °F 35.0 °F 30.2 °F 70% 29.98 in 10.0 mi East 5.8 mph - N/A   Clear
1:15 AM 39.2 °F 35.0 °F 30.2 °F 70% 29.98 in 10.0 mi East 5.8 mph - N/A   Clear
1:34 AM 39.2 °F 34.2 °F 32.0 °F 75% 29.98 in 10.0 mi East 6.9 mph - N/A   Clear
1:55 AM 39.2 °F 33.6 °F 30.2 °F 70% 29.97 in 10.0 mi East 8.1 mph - N/A   Clear
2:14 AM 39.2 °F 33.6 °F 30.2 °F 70% 29.97 in 10.0 mi ESE 8.1 mph - N/A   Clear
2:35 AM 39.2 °F 35.0 °F 30.2 °F 70% 29.97 in 10.0 mi East 5.8 mph - N/A   Clear
2:55 AM 39.2 °F 35.0 °F 30.2 °F 70% 29.96 in 10.0 mi ESE 5.8 mph - N/A   Clear
3:14 AM 41.0 °F 35.8 °F 30.2 °F 65% 29.96 in 10.0 mi ESE 8.1 mph - N/A   Clear
3:35 AM 41.0 °F 35.8 °F 32.0 °F 70% 29.96 in 10.0 mi ESE 8.1 mph - N/A   Clear
3:55 AM 41.0 °F 35.2 °F 32.0 °F 70% 29.95 in 10.0 mi ESE 9.2 mph - N/A   Clear
4:14 AM 41.0 °F 34.7 °F 32.0 °F 70% 29.94 in 10.0 mi ESE 10.4 mph - N/A   Clear
4:35 AM 41.0 °F 34.7 °F 32.0 °F 70% 29.93 in 10.0 mi ESE 10.4 mph - N/A   Clear
4:55 AM 41.0 °F 34.7 °F 32.0 °F 70% 29.92 in 10.0 mi ESE 10.4 mph - N/A   Clear
5:14 AM 41.0 °F 33.9 °F 33.8 °F 76% 29.92 in 10.0 mi ESE 12.7 mph 17.3 mph N/A   Clear
5:35 AM 41.0 °F 34.7 °F 33.8 °F 76% 29.90 in 10.0 mi ESE 10.4 mph - N/A   Clear
5:55 AM 41.0 °F 35.8 °F 33.8 °F 76% 29.89 in 10.0 mi ESE 8.1 mph - N/A   Clear
6:14 AM 41.0 °F 34.7 °F 33.8 °F 76% 29.89 in 10.0 mi ESE 10.4 mph - N/A   Clear
6:35 AM 42.8 °F 37.0 °F 33.8 °F 70% 29.88 in 10.0 mi ESE 10.4 mph - N/A   Clear
6:55 AM 42.8 °F 36.2 °F 33.8 °F 70% 29.88 in 10.0 mi ESE 12.7 mph - N/A   Clear
7:15 AM 42.8 °F 37.5 °F 33.8 °F 70% 29.88 in 10.0 mi SE 9.2 mph - N/A   Clear
7:35 AM 42.8 °F 35.8 °F 33.8 °F 70% 29.88 in 10.0 mi SE 13.8 mph - N/A   Scattered Clouds
7:54 AM 42.8 °F 36.6 °F 33.8 °F 70% 29.88 in 10.0 mi SE 11.5 mph - N/A   Mostly Cloudy
8:15 AM 42.8 °F 36.6 °F 33.8 °F 70% 29.88 in 10.0 mi SE 11.5 mph 17.3 mph N/A   Mostly Cloudy
8:35 AM 42.8 °F 35.4 °F 35.6 °F 76% 29.88 in 7.0 mi SE 15.0 mph 18.4 mph N/A   Light Drizzle
8:54 AM 42.8 °F 36.6 °F 37.4 °F 81% 29.87 in 5.0 mi SE 11.5 mph - N/A Rain Light Rain
9:15 AM 42.8 °F 35.8 °F 37.4 °F 81% 29.84 in 5.0 mi SE 13.8 mph - N/A Rain Rain
9:35 AM 42.8 °F 35.4 °F 39.2 °F 87% 29.82 in 5.0 mi ESE 15.0 mph - N/A   Overcast
9:54 AM 42.8 °F 35.1 °F 39.2 °F 87% 29.80 in 5.0 mi SE 16.1 mph 23.0 mph N/A Rain Light Rain
10:15 AM 44.6 °F 37.8 °F 41.0 °F 87% 29.78 in 5.0 mi SE 15.0 mph 23.0 mph N/A   Overcast
10:35 AM 44.6 °F 38.1 °F 42.8 °F 93% 29.78 in 5.0 mi SE 13.8 mph - N/A   Overcast
10:54 AM 46.4 °F 41.5 °F 42.8 °F 87% 29.78 in 5.0 mi SSE 10.4 mph - N/A   Overcast
11:15 AM 46.4 °F 43.5 °F 44.6 °F 93% 29.78 in 3.0 mi SSE 5.8 mph - N/A Rain Rain
11:35 AM 46.4 °F 41.1 °F 44.6 °F 93% 29.77 in 3.0 mi SSE 11.5 mph - N/A Rain Light Rain
11:55 AM 48.2 °F - 46.4 °F 93% 29.76 in 4.0 mi SSE 11.5 mph - N/A   Overcast
12:14 PM 50.0 °F - 48.2 °F 94% 29.74 in 5.0 mi SSE 16.1 mph - N/A   Mostly Cloudy
12:35 PM 51.8 °F - 50.0 °F 94% 29.74 in 7.0 mi SSE 15.0 mph 20.7 mph N/A   Overcast
12:55 PM 55.4 °F - 51.8 °F 88% 29.72 in 10.0 mi South 18.4 mph - N/A   Mostly Cloudy
1:14 PM 57.2 °F - 53.6 °F 88% 29.71 in 10.0 mi South 17.3 mph 25.3 mph N/A   Scattered Clouds
1:35 PM 59.0 °F - 53.6 °F 82% 29.69 in 10.0 mi South 18.4 mph 26.5 mph N/A   Mostly Cloudy
1:55 PM 62.6 °F - 55.4 °F 77% 29.68 in 10.0 mi South 17.3 mph 24.2 mph N/A   Overcast
2:14 PM 64.4 °F - 55.4 °F 73% 29.68 in 10.0 mi SW 25.3 mph 36.8 mph N/A   Mostly Cloudy
2:35 PM 66.2 °F - 55.4 °F 68% 29.69 in 10.0 mi SW 28.8 mph 43.7 mph N/A   Mostly Cloudy
2:55 PM 66.2 °F - 53.6 °F 64% 29.70 in 10.0 mi SW 26.5 mph 38.0 mph N/A   Mostly Cloudy
3:14 PM 66.2 °F - 51.8 °F 60% 29.71 in 10.0 mi WSW 31.1 mph 39.1 mph N/A   Mostly Cloudy
3:35 PM 66.2 °F - 51.8 °F 60% 29.72 in 10.0 mi West 20.7 mph 27.6 mph N/A   Overcast
3:55 PM 69.8 °F - 51.8 °F 53% 29.72 in 10.0 mi West 20.7 mph 27.6 mph N/A   Mostly Cloudy
4:14 PM 66.2 °F - 51.8 °F 60% 29.73 in 10.0 mi West 20.7 mph 31.1 mph N/A   Overcast
4:35 PM 66.2 °F - 51.8 °F 60% 29.74 in 10.0 mi WNW 17.3 mph 25.3 mph N/A   Scattered Clouds
4:55 PM 68.0 °F - 51.8 °F 56% 29.74 in 10.0 mi West 16.1 mph 29.9 mph N/A   Scattered Clouds
5:14 PM 68.0 °F - 51.8 °F 56% 29.76 in 10.0 mi West 18.4 mph 26.5 mph N/A   Clear
5:35 PM 66.2 °F - 51.8 °F 60% 29.77 in 10.0 mi West 15.0 mph 26.5 mph N/A   Clear
5:54 PM 64.4 °F - 50.0 °F 59% 29.79 in 10.0 mi WNW 18.4 mph 25.3 mph N/A   Clear
6:15 PM 62.6 °F - 48.2 °F 59% 29.81 in 10.0 mi West 18.4 mph 26.5 mph N/A   Clear
6:35 PM 60.8 °F - 48.2 °F 63% 29.82 in 10.0 mi WNW 13.8 mph 31.1 mph N/A   Clear
6:54 PM 60.8 °F - 46.4 °F 59% 29.84 in 10.0 mi WNW 17.3 mph 25.3 mph N/A   Clear
7:15 PM 57.2 °F - 44.6 °F 63% 29.85 in 10.0 mi WNW 15.0 mph 23.0 mph N/A   Clear
7:35 PM 57.2 °F - 44.6 °F 63% 29.86 in 10.0 mi WNW 8.1 mph 16.1 mph N/A   Clear
7:54 PM 53.6 °F - 44.6 °F 72% 29.87 in 10.0 mi NW 12.7 mph 18.4 mph N/A   Clear
8:15 PM 51.8 °F - 44.6 °F 76% 29.89 in 10.0 mi NW 8.1 mph - N/A   Clear
8:35 PM 51.8 °F - 42.8 °F 71% 29.89 in 10.0 mi NNW 8.1 mph - N/A   Clear
8:54 PM 48.2 °F - 42.8 °F 82% 29.91 in 10.0 mi NNW 9.2 mph 17.3 mph N/A   Clear
9:15 PM 46.4 °F 42.4 °F 42.8 °F 87% 29.92 in 10.0 mi NNW 8.1 mph - N/A   Clear
9:35 PM 44.6 °F 40.7 °F 41.0 °F 87% 29.92 in 10.0 mi North 6.9 mph - N/A   Clear
9:54 PM 44.6 °F 39.7 °F 41.0 °F 87% 29.93 in 10.0 mi North 9.2 mph - N/A   Clear
10:15 PM 42.8 °F 37.5 °F 39.2 °F 87% 29.94 in 10.0 mi North 9.2 mph - N/A   Clear
10:35 PM 42.8 °F 40.1 °F 39.2 °F 87% 29.95 in 10.0 mi North 4.6 mph - N/A   Clear
10:54 PM 42.8 °F - 39.2 °F 87% 29.96 in 7.0 mi Calm Calm - N/A   Clear
11:15 PM 42.8 °F - 39.2 °F 87% 29.97 in 7.0 mi Calm Calm - N/A   Clear
11:35 PM 41.0 °F - 39.2 °F 93% 29.97 in 7.0 mi Calm Calm - N/A   Clear
11:54 PM 41.0 °F - 39.2 °F 93% 29.98 in 7.0 mi Calm Calm - N/A   Clear